Zurück zum Katalog

COSMOS 2535 DEB

AktivSSO
NORAD 44640·DEBRIS·🇷🇺 Russia

Gestartet Jul 10, 2019 von Plesetsk Cosmodrome

Loading…

Nächste Überflüge (nächste 24 Stunden)

TLE

AktuellSource: Space-Track

Epoche: Sep 13, 2026, 04:09 UTC

1 44640U 19039L   26256.17303490  .00000776  00000-0  10796-3 0  9994
2 44640  97.7730 237.5015 0059516 146.2295 214.2731 14.79400019373492

Verfolge COSMOS 2535 DEB in Echtzeit mit AllMySat

Download on the App Store